[[{"header":{"parameterUnit":"m.s-1","parameterCategory":1,"la1":30.2991,"la2":30.254,"lo1":-89.0895,"lo2":-89.0444,"dy":0.0017,"dx":0.0017,"nx":28,"ny":28,"refTime":"2025-06-20T09:00:00:Z","depth":0,"parameterNumber":2,"parameterNumberName":"U-component_of_WINDS"},"data":[0,0,0,0,0,0,0,0,0,0,0,0,0,0,0,0,0,0,0,0,0,0,0,0,0,0,0,0,0,0,0,0,0,0,0,0,0,0,0,0,0,0,0,0,0,0,0,0,0,0,0,0,0,0,0,0,0,0,-0.074,-0.0739,0,-0.0672,-0.0671,-0.0671,-0.0636,-0.0635,-0.0635,-0.0635,-0.0565,-0.0563,-0.0561,0,0,0,0,0,0,0,0,0,0,0,0,0,-0.0837,-0.0836,-0.074,-0.0739,-0.0738,-0.0672,-0.0671,-0.067,-0.0636,-0.0635,-0.0635,-0.0635,-0.0565,-0.0563,-0.0561,0,0,0,0,0,0,0,0,0,0,0,0,0,-0.0785,-0.0835,-0.074,-0.0713,-0.071,-0.0673,-0.0671,-0.067,-0.0636,-0.0635,-0.0635,-0.0635,-0.0566,-0.0563,-0.0561,-0.0545,0,0,-0.0552,-0.0551,0,0,0,0,0,0,0,0,-0.0788,-0.0781,-0.0717,-0.0714,-0.0711,-0.0662,-0.068,-0.0628,-0.0636,-0.0664,-0.0635,-0.0635,-0.0597,-0.0592,-0.0579,-0.0542,-0.0539,-0.0552,-0.055,-0.0549,-0.0548,0,0,0,0,0,0,0,-0.0792,-0.0784,-0.0713,-0.0717,-0.0713,-0.0704,-0.0696,-0.067,-0.0631,-0.0661,-0.0658,-0.0651,-0.0595,-0.0582,-0.0577,-0.0538,-0.0552,-0.055,-0.0548,-0.0547,-0.0485,-0.0485,0,0,0,0,0,0,-0.08,-0.0787,-0.0715,-0.0711,-0.075,-0.0702,-0.0694,-0.0678,-0.0632,-0.0625,-0.0651,-0.065,-0.0587,-0.0581,-0.0575,-0.0554,-0.0549,-0.0547,-0.0545,-0.0485,-0.0485,-0.0485,0,0,0,0,0,0,-0.0802,-0.0794,-0.0718,-0.0748,-0.0738,-0.07,-0.0683,-0.0677,-0.0663,-0.0624,-0.0617,-0.0645,-0.0586,-0.0579,-0.0553,-0.0551,-0.0545,-0.0543,-0.0485,-0.0485,-0.0485,-0.0512,0,0,0,0,0,0,-0.0805,-0.0795,-0.0788,-0.0749,-0.0737,-0.0697,-0.0683,-0.0675,-0.0659,-0.0656,-0.0616,-0.061,-0.0586,-0.0557,-0.055,-0.0547,-0.0541,-0.0485,-0.0485,-0.0485,-0.0512,-0.0513,-0.0515,0,0,0,0,0,-0.0809,-0.0798,-0.0788,-0.078,-0.0728,-0.0697,-0.069,-0.0664,-0.0659,-0.0652,-0.0627,-0.0611,-0.0553,-0.0555,-0.0547,-0.0543,-0.0485,-0.0485,-0.0485,-0.0511,-0.0513,-0.0515,0,0,0,0,0,0,-0.0838,-0.0792,-0.0781,-0.0757,-0.0732,-0.0692,-0.0682,-0.0667,-0.0642,-0.064,-0.0608,-0.0599,-0.0577,-0.0557,-0.0561,-0.0526,-0.0517,-0.0516,-0.054,-0.0541,-0.0543,-0.0548,-0.0538,0,0,0,0,0,-0.0842,-0.0821,-0.0782,-0.0765,-0.0753,-0.072,-0.0706,-0.0688,-0.0659,-0.0648,-0.0621,-0.0594,-0.057,-0.0555,-0.053,-0.0509,-0.05,-0.0502,-0.0504,-0.0505,-0.0504,-0.0493,-0.0493,-0.0485,-0.0485,-0.0485,0,0,-0.0849,-0.0822,-0.081,-0.077,-0.0748,-0.0728,-0.0711,-0.0689,-0.0674,-0.0645,-0.0619,-0.0599,-0.0567,-0.0544,-0.0532,-0.0526,-0.0505,-0.0505,-0.0507,-0.0505,-0.0493,-0.0494,-0.0494,-0.0485,-0.0485,-0.0485,0,0,-0.0852,-0.0829,-0.0813,-0.0791,-0.0759,-0.0737,-0.0734,-0.0696,-0.0682,-0.0656,-0.0634,-0.0615,-0.0573,-0.0552,-0.0535,-0.0532,-0.0516,-0.0525,-0.0534,-0.0523,-0.0523,-0.0524,-0.0523,-0.0523,-0.0524,-0.0524,-0.0524,0,-0.0865,-0.0833,-0.0806,-0.0786,-0.077,-0.0744,-0.0727,-0.0707,-0.0668,-0.0657,-0.0652,-0.0601,-0.0577,-0.0549,-0.0548,-0.0536,-0.0531,-0.0529,-0.0526,-0.0526,-0.0526,-0.0525,-0.0525,-0.0525,-0.0525,-0.0525,-0.0525,0,-0.0851,-0.083,-0.082,-0.0784,-0.0767,-0.0749,-0.0719,-0.0704,-0.0688,-0.0667,-0.0642,-0.0613,-0.0583,-0.0575,-0.0558,-0.0545,-0.0542,-0.0532,-0.0522,-0.0528,-0.0527,-0.0526,-0.0527,-0.0527,-0.0526,-0.0526,0,0,-0.0869,-0.082,-0.0817,-0.0801,-0.0764,-0.0746,-0.0728,-0.0699,-0.0687,-0.0661,-0.0645,-0.0611,-0.0602,-0.0583,-0.0564,-0.0555,-0.0555,-0.0545,-0.0544,-0.0548,-0.0539,-0.0548,-0.0548,-0.0544,-0.0544,-0.0544,-0.0542,0,-0.0867,-0.0833,-0.0808,-0.0783,-0.0763,-0.0739,-0.0723,-0.0698,-0.0679,-0.0659,-0.0637,-0.0614,-0.0603,-0.0592,-0.0581,-0.0557,-0.0553,-0.0557,-0.0529,-0.0528,-0.0538,-0.0547,-0.0555,-0.0555,-0.0541,-0.0541,-0.0541,0,-0.086,-0.0836,-0.0809,-0.0775,-0.0766,-0.0752,-0.0724,-0.0706,-0.0678,-0.0664,-0.0645,-0.0626,-0.0605,-0.0598,-0.0569,-0.0573,-0.056,-0.0547,-0.0546,-0.0542,-0.0535,-0.0544,-0.0554,-0.0554,-0.054,-0.054,-0.054,0,-0.0876,-0.0837,-0.0817,-0.0804,-0.0764,-0.0754,-0.0737,-0.0709,-0.0694,-0.067,-0.066,-0.0633,-0.0619,-0.0599,-0.0573,-0.057,-0.0548,-0.0538,-0.0536,-0.0537,-0.0532,-0.0532,-0.054,-0.0523,-0.0523,-0.0523,-0.0523,0,-0.0876,-0.0861,-0.0824,-0.0811,-0.0793,-0.0766,-0.0749,-0.073,-0.0706,-0.0689,-0.0666,-0.0651,-0.0618,-0.0599,-0.0579,-0.0559,-0.0552,-0.0541,-0.0536,-0.0543,-0.0544,-0.0534,-0.0533,-0.0523,-0.0523,-0.0523,-0.0523,0,-0.0891,-0.0866,-0.0842,-0.0807,-0.0798,-0.0786,-0.0756,-0.0743,-0.0723,-0.0702,-0.0695,-0.0663,-0.064,-0.0613,-0.058,-0.0566,-0.0548,-0.054,-0.0558,-0.0555,-0.0554,-0.0555,-0.0556,-0.0555,-0.0539,-0.0539,-0.0539,0,-0.0893,-0.0881,-0.0845,-0.0833,-0.0816,-0.0796,-0.0781,-0.0754,-0.0739,-0.0708,-0.0699,-0.0674,-0.0652,-0.0615,-0.0589,-0.0564,-0.0556,-0.0558,-0.0552,-0.056,-0.0556,-0.0558,-0.0557,-0.056,-0.056,-0.056,-0.056,0,-0.0899,-0.0887,-0.0866,-0.0842,-0.0825,-0.0804,-0.0782,-0.0773,-0.0741,-0.0726,-0.0702,-0.0686,-0.0653,-0.0629,-0.0601,-0.0583,-0.0567,-0.0563,-0.0561,-0.0568,-0.0579,-0.0574,-0.0562,-0.0563,-0.0562,-0.0562,-0.0562,-0.0562,-0.0907,-0.0896,-0.0869,-0.0847,-0.0828,-0.0809,-0.0795,-0.0774,-0.0754,-0.0726,-0.0711,-0.0688,-0.0662,-0.0623,-0.0606,-0.0587,-0.0581,-0.0579,-0.0578,-0.0578,-0.058,-0.0582,-0.0582,-0.0582,-0.0582,-0.0581,-0.0581,0,-0.0912,-0.0895,-0.0875,-0.0846,-0.0829,-0.0816,-0.0791,-0.0778,-0.0758,-0.0735,-0.0715,-0.0688,-0.0665,-0.0638,-0.0613,-0.0603,-0.0595,-0.0597,-0.0598,-0.0594,-0.0586,-0.0591,-0.0604,-0.0604,-0.0604,-0.0604,-0.0604,-0.0604,-0.0913,-0.0893,-0.0879,-0.085,-0.0832,-0.081,-0.0797,-0.0779,-0.0761,-0.0733,-0.0714,-0.0697,-0.0672,-0.0645,-0.0624,-0.0616,-0.0608,-0.0613,-0.0603,-0.0597,-0.0595,-0.0593,-0.0597,-0.0611,-0.0611,-0.0613,-0.0613,-0.0613]},{"header":{"parameterUnit":"m.s-1","parameterCategory":1,"la1":30.2991,"la2":30.254,"lo1":-89.0895,"lo2":-89.0444,"dy":0.0017,"dx":0.0017,"nx":28,"ny":28,"refTime":"2025-06-20T09:00:00:Z","depth":0,"parameterNumber":3,"parameterNumberName":"V-component_of_WINDS"},"data":[0,0,0,0,0,0,0,0,0,0,0,0,0,0,0,0,0,0,0,0,0,0,0,0,0,0,0,0,0,0,0,0,0,0,0,0,0,0,0,0,0,0,0,0,0,0,0,0,0,0,0,0,0,0,0,0,0,0,2.5794,2.5793,0,2.574,2.574,2.5739,2.5666,2.5665,2.5664,2.5662,2.5608,2.5608,2.5608,0,0,0,0,0,0,0,0,0,0,0,0,0,2.5833,2.5833,2.5794,2.5793,2.5793,2.574,2.574,2.5739,2.5666,2.5665,2.5663,2.5662,2.5608,2.5608,2.5608,0,0,0,0,0,0,0,0,0,0,0,0,0,2.5802,2.5833,2.5794,2.575,2.5746,2.5741,2.574,2.5739,2.5667,2.5665,2.5663,2.5661,2.5609,2.5608,2.5608,2.5642,0,0,2.5606,2.5606,0,0,0,0,0,0,0,0,2.5804,2.58,2.5757,2.5753,2.5748,2.5708,2.5734,2.5706,2.5667,2.5697,2.5662,2.566,2.5643,2.564,2.5634,2.5639,2.5637,2.5606,2.5606,2.5606,2.5606,0,0,0,0,0,0,0,2.5806,2.5802,2.5773,2.5757,2.5751,2.5733,2.5726,2.5728,2.5681,2.5694,2.5688,2.5683,2.564,2.5634,2.5632,2.5636,2.5606,2.5606,2.5606,2.5606,2.5666,2.5667,0,0,0,0,0,0,2.5815,2.5805,2.5775,2.5771,2.5772,2.5734,2.5726,2.5723,2.5681,2.5672,2.5685,2.568,2.5636,2.5632,2.563,2.5666,2.5606,2.5605,2.5605,2.5664,2.5666,2.5668,0,0,0,0,0,0,2.5816,2.5813,2.5777,2.5786,2.578,2.5735,2.5731,2.5723,2.5717,2.5674,2.5665,2.5687,2.5634,2.563,2.5639,2.5663,2.5605,2.5605,2.5662,2.5664,2.5667,2.5739,0,0,0,0,0,0,2.5817,2.5814,2.5826,2.5787,2.578,2.5787,2.5733,2.5723,2.5716,2.5709,2.5674,2.5666,2.5633,2.564,2.5639,2.5661,2.5605,2.5659,2.5663,2.5666,2.5735,2.5744,2.5752,0,0,0,0,0,2.5819,2.5849,2.5827,2.5824,2.5795,2.5789,2.5785,2.5745,2.5718,2.573,2.5702,2.5667,2.5661,2.5642,2.5639,2.5662,2.5658,2.5662,2.5666,2.5731,2.5742,2.5752,0,0,0,0,0,0,2.5893,2.5843,2.5818,2.5837,2.5818,2.5776,2.5791,2.5759,2.5747,2.5741,2.5693,2.5686,2.57,2.5682,2.5662,2.5692,2.5654,2.5658,2.5704,2.5714,2.5723,2.5727,2.5604,0,0,0,0,0,2.5911,2.591,2.5867,2.5887,2.5879,2.5837,2.5832,2.5803,2.5782,2.5773,2.5746,2.5726,2.5719,2.5716,2.5707,2.5732,2.5722,2.5746,2.5755,2.5763,2.5767,2.5777,2.5786,2.5682,2.5682,2.5682,0,0,2.5949,2.5922,2.5924,2.5901,2.5883,2.5883,2.583,2.5832,2.5832,2.5773,2.5779,2.5759,2.5734,2.575,2.5756,2.5735,2.5793,2.5768,2.5774,2.5774,2.5782,2.5792,2.5801,2.5685,2.5684,2.5684,0,0,2.6018,2.5998,2.6012,2.5994,2.5967,2.5938,2.5942,2.5905,2.5889,2.5894,2.585,2.5849,2.5838,2.5822,2.5812,2.5873,2.584,2.5872,2.5919,2.5929,2.5937,2.5944,2.5966,2.5974,2.5876,2.5876,2.5876,0,2.6069,2.6066,2.6023,2.6028,2.6019,2.5965,2.5979,2.5964,2.5936,2.5931,2.5908,2.5893,2.5872,2.5883,2.5898,2.5892,2.5894,2.5876,2.594,2.5946,2.5952,2.5972,2.598,2.588,2.588,2.5879,2.5879,0,2.613,2.6129,2.6143,2.6116,2.6109,2.6118,2.6076,2.6074,2.6046,2.602,2.6025,2.5998,2.5983,2.5983,2.5956,2.599,2.5978,2.5949,2.5909,2.5967,2.5984,2.5992,2.5886,2.5885,2.5883,2.5882,0,0,2.6243,2.6192,2.6198,2.6185,2.615,2.6148,2.6155,2.6139,2.6138,2.612,2.6124,2.6116,2.6087,2.6076,2.6047,2.6056,2.6105,2.6025,2.6023,2.604,2.614,2.6162,2.6171,2.6083,2.6084,2.6085,2.6142,0,2.6305,2.6313,2.6274,2.6292,2.6291,2.624,2.6245,2.6225,2.62,2.6195,2.6168,2.6162,2.6126,2.6119,2.6126,2.6098,2.6124,2.6093,2.6085,2.6086,2.6093,2.6181,2.6204,2.6259,2.6148,2.6149,2.615,0,2.6378,2.6363,2.6381,2.6345,2.6342,2.6348,2.633,2.6326,2.6301,2.6283,2.627,2.6235,2.6239,2.6201,2.6204,2.6184,2.6178,2.6164,2.6165,2.6162,2.6121,2.618,2.6275,2.6283,2.6161,2.616,2.6159,0,2.6458,2.6443,2.6451,2.6442,2.6399,2.6404,2.6387,2.636,2.6353,2.6338,2.6332,2.6317,2.6309,2.6298,2.626,2.6237,2.6268,2.6227,2.6252,2.6253,2.6261,2.6261,2.6356,2.6259,2.6259,2.6258,2.6258,0,2.6531,2.6544,2.6487,2.6492,2.6504,2.6459,2.6473,2.6451,2.6427,2.6427,2.6382,2.6383,2.6333,2.6328,2.6298,2.6305,2.6302,2.6286,2.6278,2.629,2.6292,2.6285,2.628,2.626,2.626,2.626,2.6259,0,2.6622,2.6585,2.659,2.655,2.654,2.6551,2.6516,2.6519,2.6491,2.6491,2.6489,2.6446,2.6437,2.6398,2.6381,2.6361,2.6377,2.6362,2.6386,2.638,2.6407,2.6405,2.6501,2.6511,2.6408,2.6409,2.641,0,2.6671,2.6679,2.6639,2.6636,2.662,2.6615,2.6607,2.6563,2.6557,2.6529,2.6535,2.6523,2.651,2.6499,2.6466,2.6452,2.6435,2.647,2.6433,2.6444,2.6435,2.6435,2.6435,2.6478,2.648,2.6481,2.6482,0,2.676,2.6741,2.6731,2.6715,2.6707,2.6692,2.6675,2.6674,2.6625,2.662,2.6611,2.6601,2.6583,2.6571,2.6552,2.6533,2.6499,2.6494,2.6498,2.651,2.6523,2.6516,2.6407,2.6491,2.649,2.649,2.6489,2.6489,2.6831,2.6836,2.6808,2.6799,2.6781,2.6765,2.6766,2.6738,2.6729,2.6711,2.6685,2.6679,2.6653,2.6623,2.6607,2.6601,2.6582,2.6589,2.6591,2.6593,2.6599,2.6525,2.6597,2.6597,2.6597,2.6596,2.6596,0,2.6917,2.6897,2.6889,2.6865,2.6858,2.6826,2.6805,2.6801,2.6796,2.6774,2.6763,2.6752,2.674,2.6705,2.669,2.6692,2.6676,2.6689,2.6688,2.6684,2.6617,2.6614,2.6702,2.6702,2.6702,2.6702,2.6702,2.6702,2.6961,2.6967,2.6945,2.6942,2.6921,2.6914,2.6905,2.689,2.6872,2.6862,2.6851,2.6829,2.6802,2.6784,2.6772,2.6762,2.6758,2.6776,2.6761,2.6699,2.6689,2.668,2.6676,2.6776,2.6776,2.6829,2.6829,2.6829]}]]